STARLINK-32727, 62828

Orbit data source: Space-Track

STARLINK-32727, 62828 is a payload satellite owned by SpaceX/Seattle (US) in LEO that was launched on Fri, 24 Jan 2025 UTC via an FALCON 9 launch vehicle from the Air Force Western Test Range (AFWTR). Payload-class satellites include a variety of spacecraft equipped with specific instruments for various scientific and technological missions. These include communications satellites like Starlink; space stations such as the ISS; scientific satellites like the Hubble; Earth observation satellites from companies like Planet Labs, Umbra, and HawkEye 360; GPS; miniature CubeSats for education and research; and military/defense satellites.

Loading next visibility...
Identifier
62828, 2025-018Y
Orbit
LEO
Country
Flag of USUS
Related business
Manufacturer
SpaceX/Seattle
Mission
Operational Commercial Communications
Bus & Motor
STARLINK V2M, Unknown motor
Mass
730 kg wet, ~700 kg dry
Launch date (UTC)
2025-01-24 (2 years ago)
Launch vehicle
FALCON 9
Launch site
Air Force Western Test Range (AFWTR)
Object type
Payload
Rocket body
Debris
Shape & HBR
Box + 2 Pan, 17.7 m
Radar Cross Section
33.884 m², Large (>1 m²)

Expand to show TLE details & history
Last TLE update: 22 hours ago

TLE from 22 hours ago
0 STARLINK-32727
1 62828U 25018Y   26237.30551157  .00018696  00000-0  56314-3 0  9991
2 62828  53.1557 240.0517 0001269  82.5986 277.5161 15.34397545 90025
Epoch: 2026-08-25T07:19Z
TLE epoch observation values (Epoch: 2026-08-25T07:19:56.199Z)
Latitude
-0.00001°
Longitude
156.49277°
Altitude
463.498 km
Speed
7.636 km/s
True Right ascension
16h 00m 12s
True Declination
0° 00' 00"
Sunlit
Object was in daylight at epoch
Visualization orbit readout
Latitude
Unknown
Longitude
Unknown
Altitude
Unknown
Speed
Unknown
Apparent Right ascension
Unknown
Apparent Declination
Unknown
Sunlit
N/A
Visualization observer readout
Local Sidereal Time
20:45:30
Azimuth
Unknown
Elevation
Unknown
Doppler factor
Unknown
Orbital elements
Apogee altitude
463.836 km
Perigee altitude
462.1 km
Semi-major axis
6,841.105 km
Eccentricity
0.00013
Inclination
53.1557°
RAAN
240.0517°
Arg. of periapsis
82.5986°
True anomaly
277.50168°
Mean anomaly
277.5161°
Eccentric anomaly
277.50889°
Mean motion
3.83578 °/min
Orbital period
93.85 mins
BSTAR
0.00056314
Loading maneuver chart data...
Computing Atmospheric mass density...
Loading historical data...
Loading historical data...
Loading historical data...
Loading historical data...
Loading historical data...
Loading historical data...
Loading historical data...

Documentation

Showing up to 5 results
|